Location: Amsterdam
(30.7274°N, 84.4357°W)
Time: 07:13:46
(UTC+00:00)

Tiros 1 - Pass Details

Date: 23 February 2026
Orbit: 618 x 649 km, 48.4° (Epoch: 9 March)

Event Time Altitude Azimuth Distance (km) Brightness Sun altitude
Rises 09:50:53 0° 193° (SSW) 2,931 - -30.7°
Reaches altitude 10° 09:53:43 10° 177° (S) 2,020 - -30.1°
Exits shadow 09:55:48 18° 152° (SSE) 1,556 9.3 -29.7°
Maximum altitude 09:57:07 20° 129° (SE) 1,458 9.4 -29.4°
Drops below altitude 10° 10:00:31 10° 82° (E) 2,013 10.6 -28.7°
Sets 10:03:19 0° 66° (ENE) 2,917 11.6 -28.1°
